Weather in Novomikhaylovka

Russia / Novosibirsk Oblast     55°04′44″N   76°11′07″E
temp.,
°C
wind,
m/s
gust,
m/s
humid.,
%
clouds,
%
prec.,
mm/h
press.,
hPa
HPBL,
m
24 october, sun
sun2401:00+9sw81573100 0.0 1012642
04:00+10sw81673100 0.0 1012645
07:00+9wsw71479100 0.0 1014609
10:00+8wsw613825 0.0 1016599
13:00+11wsw7126591 0.0 1017946
16:00+12wsw61064100 0.0 10171092
19:00+10sw4974100 0.0 1018232
22:00+10sw51177100 0.0 1017373
25 october, mon
mon2501:00+9ssw51382100 0.0 1015347
04:00+9sw7157899 0.0 1013510
07:00+8sw7156497 0.0 1012480
10:00+8sw71455100 0.0 1012563
13:00+10wsw7144887 0.0 10131022
16:00+11wnw6948100 0.0 10151168
19:00+8wnw2355100 0.0 101659
22:00+6s1158100 0.0 101610
26 october, tue
tue2601:00+7sse3659100 0.0 1015181
04:00+6s41088100 1.4 1012433
07:00+7s61289100 3.2 1009506
10:00+7s3774100 1.5 1006250
13:00+8wsw51269100 1.7 10031106
16:00+4wnw71295100 1.0 1005757
19:00+4wnw8127499 1.3 10091437
22:00+1wnw813685 0.1 10141025
27 october, wed
wed2701:00−1wnw712715 0.1 1018727
04:00−2wnw510735 0.0 1021645
07:00−2w59765 0.0 1023446
10:00−2wsw59745 0.0 1024464
13:00+1w69525 0.0 10251031
16:00+2w68465 0.0 10251331
19:000wsw38635 0.0 1026154
22:00−1wsw376826 0.0 1027163
28 october, thu
thu2801:00−1sw3671100 0.0 1027134
04:00−2ssw377059 0.0 1027157
07:00−1ssw4106458 0.0 1027215
10:00−1ssw51257100 0.0 1026352
13:00+3ssw71345100 0.0 1025609
16:00+4ssw81340100 0.0 1022882
19:00+3ssw71643100 0.0 1021580
22:00+3ssw81644100 0.0 1019537